This is the latest recevied weather packets stored in our database for station/object KC3DGM. If no packets are shown the sender has not sent any weather packets the latest 10 day(s).
| Time | Temp. | Humidity | Pressure | Rain* | Wind** | Luminosity | Snow |
|---|---|---|---|---|---|---|---|
| 1777814018 | 6.67° C | 67% | 987.5 hPa | 0 mm | - | 46 W/m² | - |
| 1777813716 | 6.11° C | 73% | 987.4 hPa | 0 mm | - | 53 W/m² | - |
| 1777813413 | 5° C | 74% | 987.6 hPa | 0 mm | - | 46 W/m² | - |
| 1777813110 | 4.44° C | 83% | 987.4 hPa | 0 mm | - | 51 W/m² | - |
| 1777812808 | 3.89° C | 86% | 987.6 hPa | 0 mm | - | 39 W/m² | - |
| 1777812504 | 2.78° C | 95% | 987.3 hPa | 0 mm | - | 37 W/m² | - |
| 1777812202 | 2.78° C | 97% | 987.6 hPa | 0 mm | - | 36 W/m² | - |
| 1777811900 | 2.22° C | 97% | 987.3 hPa | 0 mm | - | 35 W/m² | - |
| 1777811599 | 1.67° C | 98% | 987.6 hPa | 0 mm | - | 32 W/m² | - |
| 1777811293 | 1.67° C | 98% | 987.3 hPa | 0 mm | - | 31 W/m² | - |
| 1777810991 | 1.11° C | 98% | 987.4 hPa | 0 mm | - | 27 W/m² | - |
| 1777810688 | 0.56° C | 98% | 987.3 hPa | 0 mm | - | 26 W/m² | - |
| 1777810385 | 0.56° C | 98% | 987.3 hPa | 0 mm | - | 33 W/m² | - |
| 1777810080 | 0° C | 98% | 987.4 hPa | 0 mm | - | 23 W/m² | - |
| 1777809778 | 0° C | 98% | 987.4 hPa | 0 mm | - | 22 W/m² | - |
| 1777809476 | -0.56° C | 98% | 987.2 hPa | 0 mm | - | 21 W/m² | - |
| 1777809173 | -0.56° C | 98% | 987.2 hPa | 0 mm | - | 21 W/m² | - |
| 1777808871 | -0.56° C | 98% | 987.6 hPa | 0 mm | - | 22 W/m² | - |
| 1777808568 | -1.11° C | 98% | 987.3 hPa | 0 mm | - | 19 W/m² | - |
| 1777808264 | -1.11° C | 98% | 987.2 hPa | 0 mm | - | 18 W/m² | - |
| 1777807964 | -1.11° C | 98% | 987.3 hPa | 0 mm | - | 18 W/m² | - |
| 1777807660 | -1.67° C | 98% | 987.5 hPa | 0 mm | - | 16 W/m² | - |
| 1777807358 | -1.67° C | 98% | 987.4 hPa | 0 mm | - | 16 W/m² | - |
| 1777807054 | -1.67° C | 98% | 987.3 hPa | 0 mm | - | 16 W/m² | - |
| 1777806751 | -1.67° C | 98% | 987.3 hPa | 0 mm | - | 14 W/m² | - |
* Rain latest hour (hover to see other rain measurements)
** Current wind speed in m/s (hover to see current wind gust speed)